IQ1GE Weather Reports


Display with metric or nautical units.
time (UTC)temp
F
wind
direction
speed
MPH
gust
MPH
rain 1hr
in
rain 24hr
in
rain mn
in
humidity
%
barometer
mb
20260510130435 62 359 0.0 0.0 0.02 0.18 0.00 89 1015.4
20260510125935 62 359 0.0 0.0 0.00 0.17 0.00 89 1015.5
20260510125432 62 359 0.0 0.0 0.00 0.16 0.00 89 1015.5
20260510124941 62 359 0.0 0.0 0.00 0.16 0.00 88 1015.5
20260510124435 63 359 0.0 0.0 0.00 0.16 0.00 87 1015.4
20260510123932 63 359 0.0 0.0 0.00 0.16 0.00 87 1015.5
20260510123435 63 359 0.0 0.0 0.00 0.16 0.00 86 1015.4
20260510122932 63 359 0.0 0.0 0.00 0.16 0.00 86 1015.4
20260510122435 64 359 0.0 0.0 0.00 0.16 0.00 86 1015.4
20260510121932 64 359 0.0 0.0 0.00 0.16 0.00 86 1015.3
20260510121432 64 359 0.0 0.0 0.00 0.16 0.00 86 1015.3
20260510120935 64 359 0.0 0.0 0.00 0.16 0.00 85 1015.3
20260510120432 64 359 0.0 0.0 0.00 0.16 0.00 85 1015.3
20260510115935 64 359 0.0 0.0 0.00 0.16 0.00 85 1015.3
20260510115432 64 359 0.0 0.0 0.00 0.16 0.00 85 1015.4
20260510114935 64 359 0.0 0.0 0.00 0.16 0.00 84 1015.3
20260510114438 64 359 0.0 0.0 0.00 0.16 0.00 85 1015.3
20260510113938 64 359 0.0 0.0 0.00 0.16 0.00 85 1015.2
20260510113441 64 359 0.0 0.0 0.00 0.16 0.00 86 1015.2
20260510112932 64 359 0.0 0.0 0.00 0.16 0.00 86 1015.2
20260510112432 64 209 0.0 0.0 0.00 0.16 0.00 86 1015.3
20260510111935 64 220 0.0 0.0 0.00 0.16 0.00 87 1015.2
20260510111435 64 359 0.0 0.0 0.00 0.16 0.00 88 1015.3
20260510110932 63 12 0.0 0.0 0.00 0.16 0.00 88 1015.2
20260510110432 63 10 0.0 0.0 0.00 0.16 0.00 89 1015.2
20260510105932 63 11 0.0 0.0 0.00 0.16 0.00 89 1015.4
20260510105435 63 359 0.0 0.0 0.00 0.16 0.00 89 1015.4
20260510104932 63 359 0.0 0.0 0.00 0.16 0.00 89 1015.6
20260510104432 62 359 0.0 0.0 0.00 0.16 0.00 89 1015.6
20260510103932 62 359 0.0 0.0 0.00 0.16 0.00 89 1015.7
20260510103438 62 359 0.0 0.0 0.02 0.16 0.00 89 1015.7
20260510102932 62 359 0.0 0.0 0.03 0.16 0.00 89 1015.7
20260510102432 62 359 0.0 0.0 0.08 0.16 0.00 89 1015.8
20260510101938 62 359 0.0 0.0 0.11 0.16 0.00 89 1015.7
20260510101435 62 359 0.0 0.0 0.11 0.16 0.00 89 1015.7
20260510100935 62 359 0.0 0.0 0.11 0.16 0.00 89 1015.6
20260510100441 62 359 0.0 0.0 0.11 0.16 0.00 89 1015.6
20260510095932 62 359 0.0 0.0 0.11 0.15 0.00 89 1015.6
20260510095432 62 359 0.0 0.0 0.11 0.15 0.00 89 1015.7
20260510094932 62 359 0.0 0.0 0.11 0.15 0.00 88 1015.7
20260510094435 62 359 0.0 0.0 0.11 0.15 0.00 88 1015.7
20260510093941 62 359 0.0 0.0 0.11 0.15 0.00 87 1015.6
20260510093432 62 359 0.0 0.0 0.10 0.14 0.00 88 1015.5
20260510092932 62 359 0.0 0.0 0.08 0.12 0.00 88 1015.6
20260510092432 62 359 0.0 0.0 0.03 0.07 0.00 87 1015.6
20260510091935 62 359 0.0 0.0 0.01 0.05 0.00 87 1015.6
20260510091435 62 359 0.0 0.0 0.00 0.04 0.00 87 1015.6
20260510090935 62 359 0.0 0.0 0.00 0.04 0.00 87 1015.5
20260510090435 62 359 0.0 0.0 0.00 0.04 0.00 87 1015.7
20260510085938 62 359 0.0 0.0 0.00 0.03 0.00 87 1015.6
20260510085432 62 359 0.0 0.0 0.00 0.03 0.00 87 1015.5
20260510084935 62 359 0.0 0.0 0.02 0.03 0.00 87 1015.6
20260510084432 62 359 0.0 0.0 0.03 0.03 0.00 87 1015.5
20260510083932 62 359 0.0 0.0 0.03 0.03 0.00 87 1015.6
20260510083435 62 359 0.0 0.0 0.03 0.03 0.00 87 1015.5
20260510082932 62 359 0.0 0.0 0.03 0.03 0.00 87 1015.5
20260510082441 62 359 0.0 0.0 0.03 0.03 0.00 87 1015.5
20260510081932 62 359 0.0 0.0 0.03 0.03 0.00 87 1015.5
20260510081432 62 359 0.0 0.0 0.03 0.03 0.00 86 1015.5
20260510080932 62 359 0.0 0.0 0.03 0.03 0.00 85 1015.5
20260510080441 62 359 0.0 0.0 0.03 0.03 0.00 84 1015.6
20260510075932 63 359 0.0 0.0 0.03 0.03 0.00 83 1015.5
20260510075432 63 359 0.0 0.0 0.03 0.03 0.00 81 1015.5
20260510074932 64 359 0.0 0.0 0.01 0.01 0.00 80 1015.5
20260510074438 64 359 0.0 0.0 0.00 0.00 0.00 79 1015.3
20260510073935 64 359 0.0 0.0 0.00 0.00 0.00 78 1015.2
20260510073438 64 359 0.0 0.0 0.00 0.00 0.00 78 1015.2
20260510072932 64 359 0.0 0.0 0.00 0.00 0.00 78 1015.3
20260510072435 64 359 0.0 0.0 0.00 0.00 0.00 78 1015.2
20260510071935 64 359 0.0 0.0 0.00 0.00 0.00 79 1015.0
20260510071432 64 359 0.0 0.0 0.00 0.00 0.00 78 1015.0
20260510070932 65 359 0.0 0.0 0.00 0.00 0.00 77 1015.1
20260510070435 65 359 0.0 0.0 0.00 0.00 0.00 76 1015.0
20260510065938 65 359 0.0 0.0 0.00 0.00 0.00 76 1015.0
20260510065435 65 359 0.0 0.0 0.00 0.00 0.00 75 1015.0
20260510064935 65 359 0.0 0.0 0.00 0.00 0.00 75 1015.0
20260510064435 65 359 0.0 0.0 0.00 0.00 0.00 75 1015.0
20260510063932 65 359 0.0 0.0 0.00 0.00 0.00 75 1015.0
20260510063435 65 359 0.0 0.0 0.00 0.00 0.00 75 1015.0
20260510062932 65 359 0.0 0.0 0.00 0.00 0.00 75 1015.0
20260510062435 65 359 0.0 0.0 0.00 0.00 0.00 75 1014.9
20260510061932 65 359 0.0 0.0 0.00 0.00 0.00 75 1014.9
20260510061432 65 359 0.0 0.0 0.00 0.00 0.00 75 1014.9
20260510060932 65 359 0.0 0.0 0.00 0.00 0.00 75 1014.9
20260510060435 65 359 0.0 0.0 0.00 0.00 0.00 75 1014.9
20260510055932 65 359 0.0 0.0 0.00 0.00 0.00 76 1014.9
20260510055435 65 359 0.0 0.0 0.00 0.00 0.00 76 1014.8
20260510054938 65 359 0.0 0.0 0.00 0.00 0.00 76 1014.9
20260510054441 65 359 0.0 0.0 0.00 0.00 0.00 76 1014.9
20260510053932 65 359 0.0 0.0 0.00 0.00 0.00 76 1014.9
20260510053435 65 359 0.0 0.0 0.00 0.00 0.00 76 1014.8
20260510052935 65 359 0.0 0.0 0.00 0.00 0.00 76 1014.9
20260510052432 65 359 0.0 0.0 0.00 0.00 0.00 77 1014.9
20260510051932 64 359 0.0 0.0 0.00 0.00 0.00 77 1014.8
20260510051433 64 359 0.0 0.0 0.00 0.00 0.00 77 1014.8
20260510050932 64 359 0.0 0.0 0.00 0.00 0.00 77 1014.8
20260510050435 64 359 0.0 0.0 0.00 0.00 0.00 77 1014.8
20260510045935 64 359 0.0 0.0 0.00 0.00 0.00 78 1014.7
20260510045435 64 359 0.0 0.0 0.00 0.00 0.00 78 1014.7
20260510044938 64 359 0.0 0.0 0.00 0.00 0.00 78 1014.7
20260510044432 64 359 0.0 0.0 0.00 0.00 0.00 78 1014.6
20260510043932 64 359 0.0 0.0 0.00 0.00 0.00 78 1014.5
20260510043432 64 359 0.0 0.0 0.00 0.00 0.00 79 1014.5
20260510042935 64 359 0.0 0.0 0.00 0.00 0.00 78 1014.6
20260510042432 64 359 0.0 0.0 0.00 0.00 0.00 78 1014.5
20260510041938 64 359 0.0 0.0 0.00 0.00 0.00 78 1014.6
20260510041432 64 359 0.0 0.0 0.00 0.00 0.00 78 1014.6
20260510040932 64 359 0.0 0.0 0.00 0.00 0.00 78 1014.6
20260510040432 64 359 0.0 0.0 0.00 0.00 0.00 78 1014.6
20260510035936 64 359 0.0 0.0 0.00 0.00 0.00 79 1014.5
20260510035432 64 359 0.0 0.0 0.00 0.00 0.00 80 1014.5
20260510034933 64 359 0.0 0.0 0.00 0.00 0.00 80 1014.6
20260510034432 64 359 0.0 0.0 0.00 0.00 0.00 80 1014.7
20260510033933 64 359 0.0 0.0 0.00 0.00 0.00 80 1014.6
20260510033433 64 359 0.0 0.0 0.00 0.00 0.00 79 1014.7
20260510032935 64 359 0.0 0.0 0.00 0.00 0.00 77 1014.7
20260510032433 65 359 0.0 0.0 0.00 0.00 0.00 76 1014.8
20260510031939 65 359 0.0 0.0 0.00 0.00 0.00 76 1014.8
20260510031436 65 359 0.0 0.0 0.00 0.00 0.00 75 1014.8
20260510030936 65 359 0.0 0.0 0.00 0.00 0.00 75 1014.9
20260510030439 65 359 0.0 0.0 0.00 0.00 0.00 75 1015.0
20260510025936 66 359 0.0 0.0 0.00 0.00 0.00 74 1015.1
20260510025436 66 359 0.0 0.0 0.00 0.00 0.00 73 1015.1
20260510024933 66 359 0.0 0.0 0.00 0.00 0.00 71 1015.1
20260510024433 67 359 0.0 0.0 0.00 0.00 0.00 70 1015.1
20260510023933 67 359 0.0 0.0 0.00 0.00 0.00 69 1015.2
20260510023436 67 359 0.0 0.0 0.00 0.00 0.00 69 1015.2
20260510022933 67 359 0.0 0.0 0.00 0.00 0.00 68 1015.3
20260510022433 67 359 0.0 0.0 0.00 0.00 0.00 68 1015.3
20260510021939 67 359 0.0 0.0 0.00 0.00 0.00 68 1015.2
20260510021442 67 359 0.0 0.0 0.00 0.00 0.00 68 1015.2
20260510020939 67 359 0.0 0.0 0.00 0.00 0.00 68 1015.1
20260510020430 66 359 0.0 0.0 0.00 0.00 0.00 69 1015.0
20260510015930 66 359 0.0 0.0 0.00 0.00 0.00 69 1015.0
20260510015433 66 359 0.0 0.0 0.00 0.00 0.00 68 1015.0
20260510014930 66 359 0.0 0.0 0.00 0.00 0.00 69 1015.1
20260510014433 66 359 0.0 0.0 0.00 0.00 0.00 68 1014.9
20260510013930 66 359 0.0 0.0 0.00 0.00 0.00 69 1014.9
20260510013439 66 359 0.0 0.0 0.00 0.00 0.00 70 1014.9
20260510012936 66 359 0.0 0.0 0.00 0.00 0.00 69 1014.9
20260510012430 66 359 0.0 0.0 0.00 0.00 0.00 69 1014.9
20260510011930 66 359 0.0 0.0 0.00 0.00 0.00 68 1015.0
20260510011430 66 359 0.0 0.0 0.00 0.00 0.00 67 1015.0
20260510010930 66 359 0.0 0.0 0.00 0.00 0.00 67 1015.0
20260510010433 66 359 0.0 0.0 0.00 0.00 0.00 68 1015.2
20260510005936 65 359 0.0 0.0 0.00 0.00 0.00 69 1015.3
20260510005430 66 359 0.0 0.0 0.00 0.00 0.00 68 1015.3
20260510004933 66 359 0.0 0.0 0.00 0.00 0.00 67 1015.5
20260510004430 67 359 0.0 0.0 0.00 0.00 0.00 66 1015.5
20260510003930 67 359 0.0 0.0 0.00 0.00 0.00 67 1015.5
20260510003430 67 359 0.0 0.0 0.00 0.00 0.00 67 1015.7
20260510002930 67 359 0.0 0.0 0.00 0.00 0.00 67 1015.9
20260510002430 67 359 0.0 0.0 0.00 0.00 0.00 67 1016.0
20260510001930 67 359 0.0 0.0 0.00 0.00 0.00 68 1016.1
20260510001430 67 359 0.0 0.0 0.00 0.00 0.00 69 1016.1
20260510000936 67 359 0.0 0.0 0.00 0.00 0.00 68 1016.3
20260510000433 67 359 0.0 0.0 0.00 0.00 0.00 68 1016.5
20260509235936 67 359 0.0 0.0 0.00 0.00 0.00 68 1016.5
20260509235439 67 359 0.0 0.0 0.00 0.00 0.00 68 1016.4
20260509234940 67 359 0.0 0.0 0.00 0.00 0.00 67 1016.4
20260509234430 67 359 0.0 0.0 0.00 0.00 0.00 67 1016.4
20260509233933 67 359 0.0 0.0 0.00 0.00 0.00 67 1016.4
20260509233430 67 359 0.0 0.0 0.00 0.00 0.00 67 1016.4
20260509232930 67 359 0.0 0.0 0.00 0.00 0.00 68 1016.4
20260509232430 67 359 0.0 0.0 0.00 0.00 0.00 69 1016.6
20260509231936 67 359 0.0 0.0 0.00 0.00 0.00 70 1016.6
20260509231430 66 359 0.0 0.0 0.00 0.00 0.00 70 1016.6
20260509230936 66 359 0.0 0.0 0.00 0.00 0.00 70 1016.5
20260509230430 66 359 0.0 0.0 0.00 0.00 0.00 70 1016.5
20260509225936 66 359 0.0 0.0 0.00 0.00 0.00 70 1016.6
20260509225430 66 359 0.0 0.0 0.00 0.00 0.00 69 1016.5
20260509224930 67 359 0.0 0.0 0.00 0.00 0.00 69 1016.4
20260509224430 66 359 0.0 0.0 0.00 0.00 0.00 69 1016.3
20260509223930 66 359 0.0 0.0 0.00 0.00 0.00 70 1016.1
20260509223436 66 359 0.0 0.0 0.00 0.00 0.00 70 1016.0
20260509222930 66 359 0.0 0.0 0.00 0.00 0.00 70 1015.8
20260509222433 66 359 0.0 0.0 0.00 0.00 0.00 70 1015.8
20260509221933 66 359 0.0 0.0 0.00 0.00 0.00 70 1015.8
20260509221433 66 359 0.0 0.0 0.00 0.00 0.00 71 1015.8
20260509220930 66 359 0.0 0.0 0.00 0.00 0.00 71 1015.9
20260509220430 66 359 0.0 0.0 0.00 0.00 0.00 70 1015.9
20260509215930 66 359 0.0 0.0 0.00 0.00 0.00 71 1015.9
20260509215430 66 359 0.0 0.0 0.00 0.00 0.00 71 1016.0
20260509214933 67 359 0.0 0.0 0.00 0.00 0.00 71 1016.2
20260509214436 67 359 0.0 0.0 0.00 0.00 0.00 71 1016.3
20260509213933 67 359 0.0 0.0 0.00 0.00 0.00 72 1016.5
20260509213430 67 359 0.0 0.0 0.00 0.00 0.00 72 1016.6
20260509212933 67 359 0.0 0.0 0.00 0.00 0.00 73 1016.6
20260509212436 67 359 0.0 0.0 0.00 0.00 0.00 73 1016.7
20260509211933 67 359 0.0 0.0 0.00 0.00 0.00 73 1016.8
20260509211430 67 359 0.0 0.0 0.00 0.00 0.00 70 1016.9
20260509210933 67 359 0.0 0.0 0.00 0.00 0.00 69 1017.0
20260509210430 67 64 0.0 0.0 0.00 0.00 0.00 67 1016.9
20260509205930 67 91 0.0 0.0 0.00 0.00 0.00 66 1016.9
20260509205430 67 54 0.0 0.0 0.00 0.00 0.00 66 1016.8
20260509204933 67 20 0.0 0.0 0.00 0.00 0.00 66 1016.7
20260509204430 68 15 0.0 0.0 0.00 0.00 0.00 66 1016.7
20260509203930 68 42 0.0 0.0 0.00 0.00 0.00 68 1016.7
20260509203431 68 359 0.0 0.0 0.00 0.00 0.00 69 1016.6
20260509202934 68 359 0.0 0.0 0.00 0.00 0.00 69 1016.5
20260509202437 68 17 0.0 0.0 0.00 0.00 0.00 69 1016.4
20260509201931 68 16 0.0 0.0 0.00 0.00 0.00 69 1016.4
20260509201431 68 16 0.0 0.0 0.00 0.00 0.00 69 1016.3
20260509200931 68 17 0.0 0.0 0.00 0.00 0.00 70 1016.3
20260509200434 68 22 0.0 0.0 0.00 0.00 0.00 70 1016.2
20260509195934 68 359 0.0 0.0 0.00 0.00 0.00 71 1016.2
20260509195437 68 359 0.0 0.0 0.00 0.00 0.00 73 1016.1
20260509194931 68 359 0.0 0.0 0.00 0.00 0.00 76 1016.1
20260509194431 68 359 0.0 0.0 0.00 0.00 0.00 76 1016.1
20260509193934 69 359 0.0 0.0 0.00 0.00 0.00 75 1016.2
20260509193434 69 359 0.0 0.0 0.00 0.00 0.00 75 1016.2
20260509192931 69 359 0.0 0.0 0.00 0.00 0.00 75 1016.1
20260509192434 69 359 0.0 0.0 0.00 0.00 0.00 75 1016.0
20260509191934 69 359 0.0 0.0 0.00 0.00 0.00 74 1016.0
20260509191437 69 359 0.0 0.0 0.00 0.00 0.00 74 1015.9
20260509190937 69 359 0.0 0.0 0.00 0.00 0.00 74 1015.8
20260509190437 69 359 0.0 0.0 0.00 0.00 0.00 73 1015.7
20260509185931 70 359 0.0 0.0 0.00 0.00 0.00 73 1015.7
20260509185437 70 359 0.0 0.0 0.00 0.00 0.00 72 1015.7
20260509184931 70 359 0.0 0.0 0.00 0.00 0.00 71 1015.7
20260509184431 70 359 0.0 0.0 0.00 0.00 0.00 68 1015.7
20260509183934 70 359 0.0 0.0 0.00 0.00 0.00 66 1015.6
20260509183431 71 359 0.0 0.0 0.00 0.00 0.00 69 1015.6
20260509182934 70 359 0.0 0.0 0.00 0.00 0.00 69 1015.6
20260509182437 71 359 0.0 0.0 0.00 0.00 0.00 69 1015.6
20260509181934 70 359 0.0 0.0 0.00 0.00 0.00 69 1015.6
20260509181431 71 359 0.0 0.0 0.00 0.00 0.00 68 1015.6
20260509180932 71 359 0.0 0.0 0.00 0.00 0.00 68 1015.6
20260509180431 71 359 0.0 0.0 0.00 0.00 0.00 67 1015.6
20260509175931 71 359 0.0 0.0 0.00 0.00 0.00 67 1015.6
20260509175431 71 359 0.0 0.0 0.00 0.00 0.00 66 1015.6
20260509174931 71 201 0.0 0.0 0.00 0.00 0.00 66 1015.5
20260509174434 71 359 0.0 0.0 0.00 0.00 0.00 66 1015.5
20260509173934 71 359 0.0 0.0 0.00 0.00 0.00 65 1015.5
20260509173434 71 182 0.0 0.0 0.00 0.00 0.00 64 1015.5
20260509172931 71 58 0.0 0.0 0.00 0.00 0.00 63 1015.4
20260509172431 71 59 0.0 0.0 0.00 0.00 0.00 61 1015.3
20260509171931 71 50 0.0 0.0 0.00 0.00 0.00 63 1015.3
20260509171437 71 38 0.0 0.0 0.00 0.00 0.00 63 1015.3
20260509170931 71 63 0.0 0.0 0.00 0.00 0.00 64 1015.4
20260509170431 71 359 0.0 0.0 0.00 0.00 0.00 65 1015.5
20260509165931 71 49 0.0 0.0 0.00 0.00 0.00 63 1015.6
20260509165434 71 359 0.0 0.0 0.00 0.00 0.00 63 1015.7
20260509164934 71 359 0.0 0.0 0.00 0.00 0.00 63 1015.7
20260509164434 71 359 0.0 0.0 0.00 0.00 0.00 65 1015.7
20260509163934 71 237 0.0 0.0 0.00 0.00 0.00 65 1015.8
20260509163431 71 236 0.0 0.0 0.00 0.00 0.00 66 1015.9
20260509162934 71 237 0.0 0.0 0.00 0.00 0.00 66 1016.0
20260509162437 70 237 0.0 0.0 0.00 0.00 0.00 67 1016.1
20260509161931 70 237 0.0 0.0 0.00 0.00 0.00 67 1016.3
20260509161434 70 237 0.0 0.0 0.00 0.00 0.00 67 1016.4
20260509160931 70 237 0.0 0.0 0.00 0.00 0.00 68 1016.5
20260509160431 70 239 0.0 0.0 0.00 0.00 0.00 71 1016.6
20260509155937 70 220 0.0 0.0 0.00 0.00 0.00 71 1016.7
20260509155434 70 212 0.0 0.0 0.00 0.00 0.00 71 1016.7
20260509154931 70 235 0.0 0.0 0.00 0.00 0.00 70 1016.8
20260509154431 71 227 0.0 0.0 0.00 0.00 0.00 67 1016.8
20260509153931 71 241 0.0 0.0 0.00 0.00 0.00 66 1016.8
20260509153437 71 218 0.0 0.0 0.00 0.00 0.00 67 1016.7
20260509152934 71 199 0.0 0.0 0.00 0.00 0.00 68 1016.9
20260509152437 71 245 0.0 0.0 0.00 0.00 0.00 66 1016.9
20260509151940 71 233 0.0 0.0 0.00 0.00 0.00 68 1016.9
20260509151431 71 220 0.0 0.0 0.00 0.00 0.00 67 1016.9
20260509150931 71 249 0.0 0.0 0.00 0.00 0.00 68 1017.0
20260509150431 71 235 0.0 0.0 0.00 0.00 0.00 69 1017.0
20260509145934 71 241 0.0 0.0 0.00 0.00 0.00 69 1017.0
20260509145431 70 243 0.0 0.0 0.00 0.00 0.00 71 1017.1
20260509144934 70 249 0.0 0.0 0.00 0.00 0.00 71 1017.2
20260509144434 70 241 0.0 0.0 0.00 0.00 0.00 71 1017.3
20260509143931 70 219 0.0 0.0 0.00 0.00 0.00 71 1017.3
20260509143431 70 202 0.0 0.0 0.00 0.00 0.00 72 1017.3
20260509142935 70 237 0.0 0.0 0.00 0.00 0.00 71 1017.3
20260509142434 70 228 0.0 0.0 0.00 0.00 0.00 72 1017.3
20260509141934 70 199 0.0 0.0 0.00 0.00 0.00 72 1017.4
20260509141434 70 189 0.0 0.0 0.00 0.00 0.00 71 1017.5
20260509140934 70 239 0.0 0.0 0.00 0.00 0.00 71 1017.5
20260509140431 70 210 0.0 0.0 0.00 0.00 0.00 70 1017.6
20260509135931 70 215 0.0 0.0 0.00 0.00 0.00 70 1017.7
20260509135437 71 209 0.0 0.0 0.00 0.00 0.00 70 1017.8
20260509134931 71 246 0.0 0.0 0.00 0.00 0.00 69 1017.7
20260509134437 71 147 0.0 0.0 0.00 0.00 0.00 70 1017.7
20260509133934 71 185 0.0 0.0 0.00 0.00 0.00 70 1017.7
20260509133434 71 153 0.0 0.0 0.00 0.00 0.00 70 1017.7
20260509132931 71 262 0.0 0.0 0.00 0.00 0.00 69 1017.8
20260509132434 71 249 0.0 0.0 0.00 0.00 0.00 68 1017.7
20260509131931 71 204 0.0 0.0 0.00 0.00 0.00 69 1017.8
20260509131431 70 215 0.0 0.0 0.00 0.00 0.00 70 1017.9
20260509130934 70 220 0.0 0.0 0.00 0.00 0.00 72 1018.0